Time,TemperatureF,DewpointF,PressureIn,WindDirection,WindDirectionDegrees,WindSpeedMPH,WindSpeedGustMPH,Humidity,HourlyPrecipIn,Conditions,Clouds,dailyrainin,SoftwareType,DateUTC
2013-05-24 00:13:00,73.1,71.0,29.87,SW,235,4.0,7.0,93,0.00,,,0.00,weatherlink.com 1.10,2013-05-24 04:13:00,
2013-05-24 00:28:00,72.8,71.0,29.88,SW,236,2.0,6.0,94,0.00,,,0.00,weatherlink.com 1.10,2013-05-24 04:28:00,
2013-05-24 00:43:00,72.8,71.0,29.87,WSW,250,6.0,10.0,94,0.00,,,0.00,weatherlink.com 1.10,2013-05-24 04:43:00,
2013-05-24 00:58:00,73.0,71.0,29.87,WSW,254,4.0,10.0,94,0.00,,,0.00,weatherlink.com 1.10,2013-05-24 04:58:00,
2013-05-24 01:13:00,73.0,71.0,29.87,SW,235,5.0,8.0,94,0.00,,,0.00,weatherlink.com 1.10,2013-05-24 05:13:00,
2013-05-24 01:28:00,72.9,71.0,29.86,WSW,257,4.0,7.0,94,0.00,,,0.00,weatherlink.com 1.10,2013-05-24 05:28:00,
2013-05-24 01:43:00,72.9,71.0,29.85,SW,231,4.0,8.0,94,0.00,,,0.00,weatherlink.com 1.10,2013-05-24 05:43:00,
2013-05-24 01:58:00,72.8,71.0,29.85,WSW,243,3.0,7.0,95,0.00,,,0.00,weatherlink.com 1.10,2013-05-24 05:58:00,
2013-05-24 02:13:00,72.9,71.0,29.84,SW,217,7.0,8.0,94,0.00,,,0.00,weatherlink.com 1.10,2013-05-24 06:13:00,
2013-05-24 02:28:00,72.7,71.0,29.83,West,268,2.0,8.0,94,0.00,,,0.00,weatherlink.com 1.10,2013-05-24 06:28:00,
2013-05-24 02:44:00,72.6,71.0,29.82,SW,229,10.0,10.0,95,0.00,,,0.00,weatherlink.com 1.10,2013-05-24 06:44:00,
2013-05-24 02:59:00,72.7,71.0,29.81,WSW,244,6.0,9.0,95,0.00,,,0.00,weatherlink.com 1.10,2013-05-24 06:59:00,
2013-05-24 03:14:00,72.7,71.0,29.81,SW,236,5.0,8.0,95,0.00,,,0.00,weatherlink.com 1.10,2013-05-24 07:14:00,
2013-05-24 03:29:00,72.7,71.0,29.80,SW,219,7.0,8.0,95,0.00,,,0.00,weatherlink.com 1.10,2013-05-24 07:29:00,
2013-05-24 03:44:00,72.4,71.0,29.80,WSW,244,3.0,7.0,95,0.00,,,0.00,weatherlink.com 1.10,2013-05-24 07:44:00,
2013-05-24 03:59:00,72.3,71.0,29.80,WSW,255,2.0,5.0,95,0.00,,,0.00,weatherlink.com 1.10,2013-05-24 07:59:00,
2013-05-24 04:14:00,72.0,71.0,29.80,West,262,2.0,4.0,95,0.00,,,0.00,weatherlink.com 1.10,2013-05-24 08:14:00,
2013-05-24 04:29:00,71.7,70.0,29.81,SW,219,1.0,3.0,95,0.00,,,0.00,weatherlink.com 1.10,2013-05-24 08:29:00,
2013-05-24 04:44:00,71.8,70.0,29.81,SW,233,4.0,5.0,95,0.00,,,0.00,weatherlink.com 1.10,2013-05-24 08:44:00,
2013-05-24 04:59:00,71.6,70.0,29.80,SW,235,4.0,5.0,95,0.00,,,0.00,weatherlink.com 1.10,2013-05-24 08:59:00,
2013-05-24 05:14:00,70.9,69.0,29.82,West,276,2.0,4.0,94,0.00,,,0.00,weatherlink.com 1.10,2013-05-24 09:14:00,
2013-05-24 05:29:00,70.7,69.0,29.82,WSW,241,2.0,6.0,94,0.00,,,0.00,weatherlink.com 1.10,2013-05-24 09:29:00,
2013-05-24 05:44:00,70.6,69.0,29.83,SSW,201,3.0,4.0,94,0.00,,,0.00,weatherlink.com 1.10,2013-05-24 09:44:00,
2013-05-24 05:59:00,70.3,69.0,29.84,SW,235,1.0,3.0,94,0.00,,,0.00,weatherlink.com 1.10,2013-05-24 09:59:00,
2013-05-24 06:14:00,70.3,69.0,29.85,WSW,249,0.0,3.0,95,0.00,,,0.00,weatherlink.com 1.10,2013-05-24 10:14:00,
2013-05-24 06:29:00,70.6,69.0,29.85,NW,321,1.0,4.0,95,0.00,,,0.00,weatherlink.com 1.10,2013-05-24 10:29:00,
2013-05-24 06:44:00,70.6,69.0,29.84,NNW,347,2.0,4.0,95,0.00,,,0.00,weatherlink.com 1.10,2013-05-24 10:44:00,
2013-05-24 06:59:00,71.3,70.0,29.84,West,279,3.0,4.0,94,0.00,,,0.00,weatherlink.com 1.10,2013-05-24 10:59:00,
2013-05-24 07:14:00,71.9,70.0,29.84,North,352,1.0,5.0,92,0.00,,,0.00,weatherlink.com 1.10,2013-05-24 11:14:00,
2013-05-24 07:29:00,72.4,69.0,29.84,WNW,289,4.0,6.0,90,0.00,,,0.00,weatherlink.com 1.10,2013-05-24 11:29:00,
2013-05-24 07:44:00,72.0,69.0,29.84,WNW,294,3.0,9.0,91,0.00,,,0.00,weatherlink.com 1.10,2013-05-24 11:44:00,
2013-05-24 07:59:00,71.9,69.0,29.84,WSW,255,2.0,6.0,90,0.00,,,0.00,weatherlink.com 1.10,2013-05-24 11:59:00,
2013-05-24 08:14:00,71.9,69.0,29.84,SW,231,1.0,6.0,90,0.00,,,0.00,weatherlink.com 1.10,2013-05-24 12:14:00,
2013-05-24 08:29:00,71.8,69.0,29.84,WSW,248,0.0,7.0,89,0.00,,,0.00,weatherlink.com 1.10,2013-05-24 12:29:00,
2013-05-24 08:44:00,72.6,69.0,29.84,West,272,3.0,5.0,87,0.00,,,0.00,weatherlink.com 1.10,2013-05-24 12:44:00,
2013-05-24 08:59:00,73.0,69.0,29.84,WNW,300,3.0,4.0,87,0.00,,,0.00,weatherlink.com 1.10,2013-05-24 12:59:00,
2013-05-24 09:14:00,74.5,70.0,29.84,ENE,57,2.0,2.0,85,0.00,,,0.00,weatherlink.com 1.10,2013-05-24 13:14:00,
2013-05-24 09:29:00,75.2,70.0,29.84,ENE,64,4.0,5.0,83,0.00,,,0.00,weatherlink.com 1.10,2013-05-24 13:29:00,
2013-05-24 09:44:00,74.7,69.0,29.85,WNW,303,2.0,4.0,82,0.00,,,0.00,weatherlink.com 1.10,2013-05-24 13:44:00,
2013-05-24 09:59:00,75.4,70.0,29.85,NNW,348,4.0,10.0,82,0.00,,,0.00,weatherlink.com 1.10,2013-05-24 13:59:00,
2013-05-24 10:14:00,74.8,68.0,29.85,WNW,300,4.0,9.0,80,0.00,,,0.00,weatherlink.com 1.10,2013-05-24 14:14:00,
2013-05-24 10:29:00,76.0,69.0,29.85,WNW,285,2.0,6.0,78,0.00,,,0.00,weatherlink.com 1.10,2013-05-24 14:29:00,
2013-05-24 10:44:00,76.8,69.0,29.85,West,280,3.0,8.0,76,0.00,,,0.00,weatherlink.com 1.10,2013-05-24 14:44:00,
2013-05-24 10:59:00,76.1,68.0,29.86,NW,306,4.0,10.0,75,0.00,,,0.00,weatherlink.com 1.10,2013-05-24 14:59:00,
2013-05-24 11:14:00,77.5,68.0,29.86,NE,37,5.0,11.0,72,0.00,,,0.00,weatherlink.com 1.10,2013-05-24 15:14:00,
2013-05-24 11:29:00,77.3,66.0,29.87,NW,310,2.0,14.0,68,0.00,,,0.00,weatherlink.com 1.10,2013-05-24 15:29:00,
2013-05-24 11:44:00,77.0,66.0,29.87,WNW,303,1.0,13.0,69,0.00,,,0.00,weatherlink.com 1.10,2013-05-24 15:44:00,
2013-05-24 11:59:00,77.7,66.0,29.88,NW,323,6.0,10.0,68,0.00,,,0.00,weatherlink.com 1.10,2013-05-24 15:59:00,
2013-05-24 12:14:00,78.0,66.0,29.88,WNW,284,7.0,12.0,67,0.00,,,0.00,weatherlink.com 1.10,2013-05-24 16:14:00,
2013-05-24 12:29:00,77.9,67.0,29.87,NW,312,4.0,12.0,69,0.00,,,0.00,weatherlink.com 1.10,2013-05-24 16:29:00,
2013-05-24 12:44:00,78.9,66.0,29.87,WNW,298,6.0,12.0,64,0.00,,,0.00,weatherlink.com 1.10,2013-05-24 16:44:00,
2013-05-24 13:00:00,78.3,66.0,29.87,NW,314,3.0,14.0,65,0.00,,,0.00,weatherlink.com 1.10,2013-05-24 17:00:00,
2013-05-24 13:15:00,78.7,65.0,29.87,NW,307,4.0,11.0,63,0.00,,,0.00,weatherlink.com 1.10,2013-05-24 17:15:00,
2013-05-24 13:30:00,78.2,64.0,29.88,WNW,296,5.0,12.0,62,0.00,,,0.00,weatherlink.com 1.10,2013-05-24 17:30:00,
2013-05-24 13:45:00,78.4,64.0,29.88,NNW,335,5.0,15.0,61,0.00,,,0.00,weatherlink.com 1.10,2013-05-24 17:45:00,
2013-05-24 14:00:00,79.3,65.0,29.88,NNE,23,3.0,13.0,62,0.00,,,0.00,weatherlink.com 1.10,2013-05-24 18:00:00,
2013-05-24 14:15:00,77.9,64.0,29.88,NW,322,6.0,13.0,62,0.00,,,0.00,weatherlink.com 1.10,2013-05-24 18:15:00,
2013-05-24 14:30:00,77.2,63.0,29.88,NNW,340,5.0,15.0,62,0.00,,,0.00,weatherlink.com 1.10,2013-05-24 18:30:00,
2013-05-24 14:45:00,78.6,63.0,29.88,NW,309,5.0,16.0,59,0.00,,,0.00,weatherlink.com 1.10,2013-05-24 18:45:00,
2013-05-24 15:00:00,77.8,63.0,29.89,NNW,343,12.0,20.0,60,0.00,,,0.00,weatherlink.com 1.10,2013-05-24 19:00:00,
2013-05-24 15:15:00,78.0,63.0,29.89,WNW,290,3.0,16.0,60,0.00,,,0.00,weatherlink.com 1.10,2013-05-24 19:15:00,
2013-05-24 15:30:00,77.3,63.0,29.90,WNW,302,5.0,20.0,61,0.00,,,0.00,weatherlink.com 1.10,2013-05-24 19:30:00,
2013-05-24 15:45:00,77.0,61.0,29.90,WNW,290,7.0,18.0,59,0.00,,,0.00,weatherlink.com 1.10,2013-05-24 19:45:00,
2013-05-24 16:00:00,77.8,62.0,29.91,WNW,301,7.0,19.0,58,0.00,,,0.00,weatherlink.com 1.10,2013-05-24 20:00:00,
2013-05-24 16:15:00,76.4,61.0,29.91,NW,316,9.0,18.0,59,0.00,,,0.00,weatherlink.com 1.10,2013-05-24 20:15:00,
2013-05-24 16:30:00,75.4,61.0,29.92,NNW,330,6.0,21.0,61,0.00,,,0.00,weatherlink.com 1.10,2013-05-24 20:30:00,
2013-05-24 16:45:00,71.7,61.0,29.93,NE,38,21.0,26.0,69,0.00,,,0.00,weatherlink.com 1.10,2013-05-24 20:45:00,
2013-05-24 17:00:00,69.2,61.0,29.94,NE,34,26.0,26.0,74,0.00,,,0.00,weatherlink.com 1.10,2013-05-24 21:00:00,
2013-05-24 17:15:00,69.1,59.0,29.95,NE,38,13.0,23.0,71,0.00,,,0.00,weatherlink.com 1.10,2013-05-24 21:15:00,
2013-05-24 17:30:00,69.4,59.0,29.96,NNE,13,13.0,24.0,69,0.00,,,0.00,weatherlink.com 1.10,2013-05-24 21:30:00,
2013-05-24 17:45:00,69.9,59.0,29.97,NW,324,6.0,20.0,68,0.00,,,0.00,weatherlink.com 1.10,2013-05-24 21:45:00,
2013-05-24 18:00:00,69.6,59.0,29.98,NNE,13,4.0,16.0,68,0.00,,,0.00,weatherlink.com 1.10,2013-05-24 22:00:00,
2013-05-24 18:15:00,69.9,58.0,29.99,NNE,14,7.0,15.0,67,0.00,,,0.00,weatherlink.com 1.10,2013-05-24 22:15:00,
2013-05-24 18:30:00,69.5,58.0,29.99,NNW,342,7.0,13.0,66,0.00,,,0.00,weatherlink.com 1.10,2013-05-24 22:30:00,
2013-05-24 18:45:00,70.1,57.0,29.99,NNE,26,7.0,13.0,64,0.00,,,0.00,weatherlink.com 1.10,2013-05-24 22:45:00,
2013-05-24 19:00:00,69.7,57.0,30.00,North,359,6.0,15.0,64,0.00,,,0.00,weatherlink.com 1.10,2013-05-24 23:00:00,
2013-05-24 19:15:00,68.9,57.0,30.01,NE,38,3.0,10.0,67,0.00,,,0.00,weatherlink.com 1.10,2013-05-24 23:15:00,
2013-05-24 19:30:00,68.3,57.0,30.02,North,6,3.0,10.0,68,0.00,,,0.00,weatherlink.com 1.10,2013-05-24 23:30:00,
2013-05-24 19:45:00,67.7,57.0,30.02,North,354,4.0,8.0,68,0.00,,,0.00,weatherlink.com 1.10,2013-05-24 23:45:00,
2013-05-24 20:00:00,67.0,57.0,30.04,NNE,17,2.0,5.0,70,0.00,,,0.00,weatherlink.com 1.10,2013-05-25 00:00:00,
2013-05-24 20:15:00,66.2,57.0,30.04,NE,38,3.0,4.0,72,0.00,,,0.00,weatherlink.com 1.10,2013-05-25 00:15:00,
2013-05-24 20:31:00,65.8,57.0,30.05,WNW,293,1.0,9.0,74,0.00,,,0.00,weatherlink.com 1.10,2013-05-25 00:31:00,
2013-05-24 20:46:00,65.3,55.0,30.06,NNE,14,1.0,6.0,70,0.00,,,0.00,weatherlink.com 1.10,2013-05-25 00:46:00,
2013-05-24 21:01:00,64.9,51.0,30.07,West,281,1.0,8.0,62,0.00,,,0.00,weatherlink.com 1.10,2013-05-25 01:01:00,
2013-05-24 21:16:00,65.0,50.0,30.08,WNW,286,2.0,10.0,59,0.00,,,0.00,weatherlink.com 1.10,2013-05-25 01:16:00,
2013-05-24 21:31:00,64.5,51.0,30.09,NW,304,5.0,8.0,61,0.00,,,0.00,weatherlink.com 1.10,2013-05-25 01:31:00,
2013-05-24 21:46:00,64.4,54.0,30.10,North,358,2.0,8.0,70,0.00,,,0.00,weatherlink.com 1.10,2013-05-25 01:46:00,
2013-05-24 22:01:00,63.8,56.0,30.11,NNW,328,1.0,3.0,75,0.00,,,0.00,weatherlink.com 1.10,2013-05-25 02:01:00,
2013-05-24 22:16:00,63.1,55.0,30.12,NW,314,1.0,2.0,76,0.00,,,0.00,weatherlink.com 1.10,2013-05-25 02:16:00,
2013-05-24 22:31:00,62.6,56.0,30.12,WNW,302,1.0,5.0,78,0.00,,,0.00,weatherlink.com 1.10,2013-05-25 02:31:00,
2013-05-24 22:46:00,62.4,55.0,30.13,NW,309,2.0,5.0,77,0.00,,,0.00,weatherlink.com 1.10,2013-05-25 02:46:00,
2013-05-24 23:01:00,62.0,55.0,30.13,NNE,14,1.0,3.0,78,0.00,,,0.00,weatherlink.com 1.10,2013-05-25 03:01:00,
2013-05-24 23:16:00,61.9,54.0,30.13,WNW,292,3.0,7.0,74,0.00,,,0.00,weatherlink.com 1.10,2013-05-25 03:16:00,
2013-05-24 23:31:00,61.9,52.0,30.13,NNW,345,3.0,9.0,70,0.00,,,0.00,weatherlink.com 1.10,2013-05-25 03:31:00,
2013-05-24 23:46:00,61.7,52.0,30.13,NNW,340,2.0,6.0,71,0.00,,,0.00,weatherlink.com 1.10,2013-05-25 03:46:00,